Tracking 30922 objects as of 2-Jul-2025
HD Live streaming from Space Station
objects crossing your sky now

SL-18 R/B

Track SL-18 R/B now!
10-day predictions


NORAD ID: 26703
Int'l Code: 2001-007B
Perigee: 549.1 km
Apogee: 564.3 km
Inclination: 97.7 °
Period: 95.6 minutes
Semi major axis: 6927 km
RCS: 2.4311 m2 (large)
Launch date: February 20, 2001
Source: Commonwealth of Independent States (former USSR) (CIS)
Launch site: Svobodny, Russia (SVOB)

Pakistan's microsatellite for development of surveillance capability.
Note: This is a ROCKET BODY
Your satellite tracking list
ARIANE 44LP DEB
Track 1 satellite(s)




NASA's NSSDC Master Catalog

Two Line Element Set (TLE):
1 26703U 01007B   25182.89337934  .00001501  00000-0  10822-3 0  9993
2 26703  97.7006 196.8517 0010999 111.3567 248.8834 15.05637006608394
Source of the keplerian elements: AFSPC